Location: Bli��� Lhota
(48.7570°N, 14.0120°E)
Time: 08:56:02
(UTC+00:00)

Cosmos 1626 - Pass Details

Date: 18 September 2020
Orbit: 490 x 495 km, 82.5° (Epoch: 24 October)

Event Time Altitude Azimuth Distance (km) Brightness Sun altitude
Rises 20:13:08 0° 343° (NNW) 2,590 6.6 -28.5°
Reaches altitude 10° 20:15:21 10° 335° (NNW) 1,701 5.6 -28.8°
Enters shadow 20:17:25 27° 313° (NW) 992 4.2 -29.0°
